{"data":{"norad_id":64531,"epoch":"2026-05-25T04:17:15.530208Z","epoch_age_seconds":70044,"freshness":"FRESH","line1":"1 64531U 25135D   26145.17865197  .00010673  00000+0  42210-3 0  9995","line2":"2 64531  97.4689 261.3903 0003479 233.0870 127.0050 15.25647391 51413","mean_motion":15.25647391,"eccentricity":0.0003479,"inclination_deg":97.4689,"raan_deg":261.3903,"arg_perigee_deg":233.087,"mean_anomaly_deg":127.005,"bstar":0.0004221,"rev_number":5141,"period_min":94.386160818991,"perigee_km":486.45310854823,"apogee_km":491.2311526273,"semimajor_km":6866.9791305878,"source":"CELESTRAK","updated_at":"2026-05-25T13:38:04.580177Z"}}